STP-S29A OBJECT H

Last updated on Sun Apr 12 2026 00:02:10 GMT+0000 (Coordinated Universal Time)

1 68634U 26074H 26101.39067897 .00008048 00000+0 32663-3 0 9997 2 68634 60.0208 74.3555 0018101 338.4333 21.5984 15.25302153 604
UTC large
Height (km)
Speed (km/s)
/
Latitude / Longitude
Inclination (degrees)
Orbital Period (minutes)
Azimuth
Elevation
Range (km)
Doppler Factor

Next 0 passes for location: London (51.5072 / 0.1276)

Sorry there are no passes over London.
STP-S29A OBJECT H